Time,TemperatureF,DewpointF,PressureIn,WindDirection,WindDirectionDegrees,WindSpeedMPH,WindSpeedGustMPH,Humidity,HourlyPrecipIn,Conditions,Clouds,dailyrainin,SoftwareType,DateUTC
2013-04-15 00:00:00,80.0,-99.9,29.97,SSE,160,15.0,17.0,-999,-99.99,,,-99.99,,2013-04-15 04:00:00,
2013-04-15 00:23:00,80.0,-99.9,29.97,SSE,160,15.0,17.0,-999,-99.99,,,-99.99,,2013-04-15 04:23:00,
2013-04-15 00:33:00,80.0,-99.9,29.97,SSE,160,15.0,17.0,-999,-99.99,,,-99.99,,2013-04-15 04:33:00,
2013-04-15 00:43:00,80.0,-99.9,29.97,SSE,160,15.0,17.0,-999,-99.99,,,-99.99,,2013-04-15 04:43:00,
2013-04-15 00:53:00,80.0,-99.9,29.97,SSE,160,15.0,17.0,-999,-99.99,,,-99.99,,2013-04-15 04:53:00,
2013-04-15 01:00:00,80.0,-99.9,29.96,SSE,160,15.0,18.0,-999,-99.99,,,-99.99,,2013-04-15 05:00:00,
2013-04-15 01:23:00,80.0,-99.9,29.96,SSE,160,15.0,18.0,-999,-99.99,,,-99.99,,2013-04-15 05:23:00,
2013-04-15 01:33:00,80.0,-99.9,29.96,SSE,160,15.0,18.0,-999,-99.99,,,-99.99,,2013-04-15 05:33:00,
2013-04-15 01:43:00,80.0,-99.9,29.96,SSE,160,15.0,18.0,-999,-99.99,,,-99.99,,2013-04-15 05:43:00,
2013-04-15 01:53:00,80.0,-99.9,29.96,SSE,160,15.0,18.0,-999,-99.99,,,-99.99,,2013-04-15 05:53:00,
2013-04-15 02:00:00,80.0,-99.9,29.96,SSE,160,14.0,15.0,-999,-99.99,,,-99.99,,2013-04-15 06:00:00,
2013-04-15 02:23:00,80.0,-99.9,29.96,SSE,160,14.0,15.0,-999,-99.99,,,-99.99,,2013-04-15 06:23:00,
2013-04-15 02:34:00,80.0,-99.9,29.96,SSE,160,14.0,15.0,-999,-99.99,,,-99.99,,2013-04-15 06:34:00,
2013-04-15 02:43:00,80.0,-99.9,29.96,SSE,160,14.0,15.0,-999,-99.99,,,-99.99,,2013-04-15 06:43:00,
2013-04-15 02:53:00,80.0,-99.9,29.96,SSE,160,14.0,15.0,-999,-99.99,,,-99.99,,2013-04-15 06:53:00,
2013-04-15 03:00:00,80.0,-99.9,29.95,SSE,160,11.0,13.0,-999,-99.99,,,-99.99,,2013-04-15 07:00:00,
2013-04-15 03:42:00,80.0,-99.9,29.95,SSE,160,11.0,13.0,-999,-99.99,,,-99.99,,2013-04-15 07:42:00,
2013-04-15 03:43:00,80.0,-99.9,29.95,SSE,160,11.0,13.0,-999,-99.99,,,-99.99,,2013-04-15 07:43:00,
2013-04-15 03:54:00,80.0,-99.9,29.95,SSE,160,11.0,13.0,-999,-99.99,,,-99.99,,2013-04-15 07:54:00,
2013-04-15 04:00:00,79.0,-99.9,29.94,South,170,14.0,16.0,-999,-99.99,,,-99.99,,2013-04-15 08:00:00,
2013-04-15 04:23:00,79.0,-99.9,29.94,South,170,14.0,16.0,-999,-99.99,,,-99.99,,2013-04-15 08:23:00,
2013-04-15 04:34:00,79.0,-99.9,29.94,South,170,14.0,16.0,-999,-99.99,,,-99.99,,2013-04-15 08:34:00,
2013-04-15 04:43:00,79.0,-99.9,29.94,South,170,14.0,16.0,-999,-99.99,,,-99.99,,2013-04-15 08:43:00,
2013-04-15 04:52:00,79.0,-99.9,29.94,South,170,14.0,16.0,-999,-99.99,,,-99.99,,2013-04-15 08:52:00,
2013-04-15 05:00:00,79.0,-99.9,29.94,South,170,13.0,14.0,-999,-99.99,,,-99.99,,2013-04-15 09:00:00,
2013-04-15 05:23:00,79.0,-99.9,29.94,South,170,13.0,14.0,-999,-99.99,,,-99.99,,2013-04-15 09:23:00,
2013-04-15 05:33:00,79.0,-99.9,29.94,South,170,13.0,14.0,-999,-99.99,,,-99.99,,2013-04-15 09:33:00,
2013-04-15 05:43:00,79.0,-99.9,29.94,South,170,13.0,14.0,-999,-99.99,,,-99.99,,2013-04-15 09:43:00,
2013-04-15 05:53:00,79.0,-99.9,29.94,South,170,13.0,14.0,-999,-99.99,,,-99.99,,2013-04-15 09:53:00,
2013-04-15 06:00:00,79.0,-99.9,29.95,South,170,11.0,13.0,-999,-99.99,,,-99.99,,2013-04-15 10:00:00,
2013-04-15 06:23:00,79.0,-99.9,29.95,South,170,11.0,13.0,-999,-99.99,,,-99.99,,2013-04-15 10:23:00,
2013-04-15 06:33:00,79.0,-99.9,29.95,South,170,11.0,13.0,-999,-99.99,,,-99.99,,2013-04-15 10:33:00,
2013-04-15 06:42:00,79.0,-99.9,29.95,South,170,11.0,13.0,-999,-99.99,,,-99.99,,2013-04-15 10:42:00,
2013-04-15 06:53:00,79.0,-99.9,29.95,South,170,11.0,13.0,-999,-99.99,,,-99.99,,2013-04-15 10:53:00,
2013-04-15 07:00:00,79.0,-99.9,29.97,South,170,9.0,9.0,-999,-99.99,,,-99.99,,2013-04-15 11:00:00,
2013-04-15 07:23:00,79.0,-99.9,29.97,South,170,9.0,9.0,-999,-99.99,,,-99.99,,2013-04-15 11:23:00,
2013-04-15 07:33:00,79.0,-99.9,29.97,South,170,9.0,9.0,-999,-99.99,,,-99.99,,2013-04-15 11:33:00,
2013-04-15 07:44:00,79.0,-99.9,29.97,South,170,9.0,9.0,-999,-99.99,,,-99.99,,2013-04-15 11:44:00,
2013-04-15 07:54:00,79.0,-99.9,29.97,South,170,9.0,9.0,-999,-99.99,,,-99.99,,2013-04-15 11:54:00,
2013-04-15 08:00:00,80.0,-99.9,29.98,South,190,9.0,10.0,-999,-99.99,,,-99.99,,2013-04-15 12:00:00,
2013-04-15 08:24:00,80.0,-99.9,29.98,South,190,9.0,10.0,-999,-99.99,,,-99.99,,2013-04-15 12:24:00,
2013-04-15 08:43:00,80.0,-99.9,29.98,South,190,9.0,10.0,-999,-99.99,,,-99.99,,2013-04-15 12:43:00,
2013-04-15 08:54:00,80.0,-99.9,29.98,South,190,9.0,10.0,-999,-99.99,,,-99.99,,2013-04-15 12:54:00,
2013-04-15 09:00:00,80.0,-99.9,30.00,South,180,6.0,7.0,-999,-99.99,,,-99.99,,2013-04-15 13:00:00,
2013-04-15 09:24:00,80.0,-99.9,30.00,South,180,6.0,7.0,-999,-99.99,,,-99.99,,2013-04-15 13:24:00,
2013-04-15 09:34:00,80.0,-99.9,30.00,South,180,6.0,7.0,-999,-99.99,,,-99.99,,2013-04-15 13:34:00,
2013-04-15 09:43:00,80.0,-99.9,30.00,South,180,6.0,7.0,-999,-99.99,,,-99.99,,2013-04-15 13:43:00,
2013-04-15 09:54:00,80.0,-99.9,30.00,South,180,6.0,7.0,-999,-99.99,,,-99.99,,2013-04-15 13:54:00,
2013-04-15 10:00:00,81.0,-99.9,30.02,South,190,7.0,8.0,-999,-99.99,,,-99.99,,2013-04-15 14:00:00,
2013-04-15 10:23:00,81.0,-99.9,30.02,South,190,7.0,8.0,-999,-99.99,,,-99.99,,2013-04-15 14:23:00,
2013-04-15 10:34:00,81.0,-99.9,30.02,South,190,7.0,8.0,-999,-99.99,,,-99.99,,2013-04-15 14:34:00,
2013-04-15 10:45:00,81.0,-99.9,30.02,South,190,7.0,8.0,-999,-99.99,,,-99.99,,2013-04-15 14:45:00,
2013-04-15 10:55:00,81.0,-99.9,30.02,South,190,7.0,8.0,-999,-99.99,,,-99.99,,2013-04-15 14:55:00,
2013-04-15 11:00:00,81.0,-99.9,30.02,South,180,6.0,6.0,-999,-99.99,,,-99.99,,2013-04-15 15:00:00,
2013-04-15 11:25:00,81.0,-99.9,30.02,South,180,6.0,6.0,-999,-99.99,,,-99.99,,2013-04-15 15:25:00,
2013-04-15 11:37:00,81.0,-99.9,30.02,South,180,6.0,6.0,-999,-99.99,,,-99.99,,2013-04-15 15:37:00,
2013-04-15 11:45:00,81.0,-99.9,30.02,South,180,6.0,6.0,-999,-99.99,,,-99.99,,2013-04-15 15:45:00,
2013-04-15 11:55:00,81.0,-99.9,30.02,South,180,6.0,6.0,-999,-99.99,,,-99.99,,2013-04-15 15:55:00,
2013-04-15 12:00:00,81.0,-99.9,30.03,North,0,0.0,2.0,-999,-99.99,,,-99.99,,2013-04-15 16:00:00,
2013-04-15 12:25:00,81.0,-99.9,30.03,North,0,0.0,2.0,-999,-99.99,,,-99.99,,2013-04-15 16:25:00,
2013-04-15 12:34:00,81.0,-99.9,30.03,North,0,0.0,2.0,-999,-99.99,,,-99.99,,2013-04-15 16:34:00,
2013-04-15 12:45:00,81.0,-99.9,30.03,North,0,0.0,2.0,-999,-99.99,,,-99.99,,2013-04-15 16:45:00,
2013-04-15 12:55:00,81.0,-99.9,30.03,North,0,0.0,2.0,-999,-99.99,,,-99.99,,2013-04-15 16:55:00,
2013-04-15 13:00:00,81.0,-99.9,30.02,SSW,200,5.0,7.0,-999,-99.99,,,-99.99,,2013-04-15 17:00:00,
2013-04-15 13:22:00,81.0,-99.9,30.02,SSW,200,5.0,7.0,-999,-99.99,,,-99.99,,2013-04-15 17:22:00,
2013-04-15 13:33:00,81.0,-99.9,30.02,SSW,200,5.0,7.0,-999,-99.99,,,-99.99,,2013-04-15 17:33:00,
2013-04-15 13:53:00,81.0,-99.9,30.02,SSW,200,5.0,7.0,-999,-99.99,,,-99.99,,2013-04-15 17:53:00,
2013-04-15 14:00:00,81.0,-99.9,30.01,South,170,8.0,9.0,-999,-99.99,,,-99.99,,2013-04-15 18:00:00,
2013-04-15 14:24:00,81.0,-99.9,30.01,South,170,8.0,9.0,-999,-99.99,,,-99.99,,2013-04-15 18:24:00,
2013-04-15 14:33:00,81.0,-99.9,30.01,South,170,8.0,9.0,-999,-99.99,,,-99.99,,2013-04-15 18:33:00,
2013-04-15 14:42:00,81.0,-99.9,30.01,South,170,8.0,9.0,-999,-99.99,,,-99.99,,2013-04-15 18:42:00,
2013-04-15 14:52:00,81.0,-99.9,30.01,South,170,8.0,9.0,-999,-99.99,,,-99.99,,2013-04-15 18:52:00,
2013-04-15 15:00:00,81.0,-99.9,29.98,SSW,200,9.0,9.0,-999,-99.99,,,-99.99,,2013-04-15 19:00:00,
2013-04-15 15:22:00,81.0,-99.9,29.98,SSW,200,9.0,9.0,-999,-99.99,,,-99.99,,2013-04-15 19:22:00,
2013-04-15 15:39:00,81.0,-99.9,29.98,SSW,200,9.0,9.0,-999,-99.99,,,-99.99,,2013-04-15 19:39:00,
2013-04-15 15:59:00,81.0,-99.9,29.98,SSW,200,9.0,9.0,-999,-99.99,,,-99.99,,2013-04-15 19:59:00,
2013-04-15 16:00:00,81.0,-99.9,29.98,SSW,200,9.0,10.0,-999,-99.99,,,-99.99,,2013-04-15 20:00:00,
2013-04-15 16:22:00,81.0,-99.9,29.98,SSW,200,9.0,10.0,-999,-99.99,,,-99.99,,2013-04-15 20:22:00,
2013-04-15 16:32:00,81.0,-99.9,29.98,SSW,200,9.0,10.0,-999,-99.99,,,-99.99,,2013-04-15 20:32:00,
2013-04-15 16:42:00,81.0,-99.9,29.98,SSW,200,9.0,10.0,-999,-99.99,,,-99.99,,2013-04-15 20:42:00,
2013-04-15 16:52:00,81.0,-99.9,29.98,SSW,200,9.0,10.0,-999,-99.99,,,-99.99,,2013-04-15 20:52:00,
2013-04-15 17:00:00,81.0,-99.9,29.98,SSW,210,6.0,6.0,-999,-99.99,,,-99.99,,2013-04-15 21:00:00,
2013-04-15 17:22:00,81.0,-99.9,29.98,SSW,210,6.0,6.0,-999,-99.99,,,-99.99,,2013-04-15 21:22:00,
2013-04-15 17:33:00,81.0,-99.9,29.98,SSW,210,6.0,6.0,-999,-99.99,,,-99.99,,2013-04-15 21:33:00,
2013-04-15 17:43:00,81.0,-99.9,29.98,SSW,210,6.0,6.0,-999,-99.99,,,-99.99,,2013-04-15 21:43:00,
2013-04-15 17:53:00,81.0,-99.9,29.98,SSW,210,6.0,6.0,-999,-99.99,,,-99.99,,2013-04-15 21:53:00,
2013-04-15 18:00:00,81.0,-99.9,29.98,West,280,1.0,2.0,-999,-99.99,,,-99.99,,2013-04-15 22:00:00,
2013-04-15 18:33:00,81.0,-99.9,29.98,West,280,1.0,2.0,-999,-99.99,,,-99.99,,2013-04-15 22:33:00,
2013-04-15 18:42:00,81.0,-99.9,29.98,West,280,1.0,2.0,-999,-99.99,,,-99.99,,2013-04-15 22:42:00,
2013-04-15 18:52:00,81.0,-99.9,29.98,West,280,1.0,2.0,-999,-99.99,,,-99.99,,2013-04-15 22:52:00,
2013-04-15 19:00:00,82.0,-99.9,29.99,North,0,0.0,0.0,-999,-99.99,,,-99.99,,2013-04-15 23:00:00,
2013-04-15 19:22:00,82.0,-99.9,29.99,North,0,0.0,0.0,-999,-99.99,,,-99.99,,2013-04-15 23:22:00,
2013-04-15 19:32:00,82.0,-99.9,29.99,North,0,0.0,0.0,-999,-99.99,,,-99.99,,2013-04-15 23:32:00,
2013-04-15 19:42:00,82.0,-99.9,29.99,North,0,0.0,0.0,-999,-99.99,,,-99.99,,2013-04-15 23:42:00,
2013-04-15 19:52:00,82.0,-99.9,29.99,North,0,0.0,0.0,-999,-99.99,,,-99.99,,2013-04-15 23:52:00,
2013-04-15 20:00:00,82.0,-99.9,30.01,NNE,30,7.0,8.0,-999,-99.99,,,-99.99,,2013-04-16 00:00:00,
2013-04-15 20:22:00,82.0,-99.9,30.01,NNE,30,7.0,8.0,-999,-99.99,,,-99.99,,2013-04-16 00:22:00,
2013-04-15 20:32:00,82.0,-99.9,30.01,NNE,30,7.0,8.0,-999,-99.99,,,-99.99,,2013-04-16 00:32:00,
2013-04-15 20:42:00,82.0,-99.9,30.01,NNE,30,7.0,8.0,-999,-99.99,,,-99.99,,2013-04-16 00:42:00,
2013-04-15 20:52:00,82.0,-99.9,30.01,NNE,30,7.0,8.0,-999,-99.99,,,-99.99,,2013-04-16 00:52:00,
2013-04-15 21:00:00,82.0,-99.9,30.03,NE,50,8.0,9.0,-999,-99.99,,,-99.99,,2013-04-16 01:00:00,
2013-04-15 21:22:00,82.0,-99.9,30.03,NE,50,8.0,9.0,-999,-99.99,,,-99.99,,2013-04-16 01:22:00,
2013-04-15 21:32:00,82.0,-99.9,30.03,NE,50,8.0,9.0,-999,-99.99,,,-99.99,,2013-04-16 01:32:00,
2013-04-15 21:42:00,82.0,-99.9,30.03,NE,50,8.0,9.0,-999,-99.99,,,-99.99,,2013-04-16 01:42:00,
2013-04-15 21:52:00,82.0,-99.9,30.03,NE,50,8.0,9.0,-999,-99.99,,,-99.99,,2013-04-16 01:52:00,
2013-04-15 22:00:00,82.0,-99.9,30.04,ENE,60,10.0,11.0,-999,-99.99,,,-99.99,,2013-04-16 02:00:00,
2013-04-15 22:22:00,82.0,-99.9,30.04,ENE,60,10.0,11.0,-999,-99.99,,,-99.99,,2013-04-16 02:22:00,
2013-04-15 22:32:00,82.0,-99.9,30.04,ENE,60,10.0,11.0,-999,-99.99,,,-99.99,,2013-04-16 02:32:00,
2013-04-15 22:42:00,82.0,-99.9,30.04,ENE,60,10.0,11.0,-999,-99.99,,,-99.99,,2013-04-16 02:42:00,
2013-04-15 22:52:00,82.0,-99.9,30.04,ENE,60,10.0,11.0,-999,-99.99,,,-99.99,,2013-04-16 02:52:00,
2013-04-15 23:00:00,81.0,-99.9,30.05,NE,50,11.0,13.0,-999,-99.99,,,-99.99,,2013-04-16 03:00:00,
2013-04-15 23:22:00,81.0,-99.9,30.05,NE,50,11.0,13.0,-999,-99.99,,,-99.99,,2013-04-16 03:22:00,
2013-04-15 23:33:00,81.0,-99.9,30.05,NE,50,11.0,13.0,-999,-99.99,,,-99.99,,2013-04-16 03:33:00,
2013-04-15 23:43:00,81.0,-99.9,30.05,NE,50,11.0,13.0,-999,-99.99,,,-99.99,,2013-04-16 03:43:00,
2013-04-15 23:53:00,81.0,-99.9,30.05,NE,50,11.0,13.0,-999,-99.99,,,-99.99,,2013-04-16 03:53:00,